Temp
62 62 62 62 63 63 63 64 64 65 66 66 67 67 67 67 67 67 67 66 64 63 63 66 67 67 66 65 65 65 65 64 64 63 63 62 62 61 60 59 59 59 58 57 56 56 56 56 55 55 54 54 53 53 53 52 52 52 52 52 51 51 51 51 51 50 50 49 49
62 62 62 62 62 63 63 63 63 64 65 65 66 66 66 66 66 67 67 67 66 64 64 65 66 65 65 65 65 64 64 64 64 63 62 61 61 60 59 58 58 58 57 57 57 57 56 56 55 55 54 54 53 52 52 52 52 51 51 51 50 50 50 50 50 50 49 49 48
63 63 62 62 62 62 63 63 63 63 63 64 64 65 65 66 66 66 66 66 66 66 65 65 64 64 64 65 64 63 63 63 64 64 63 60 60 59 58 57 57 57 57 57 57 56 54 54 53 53 54 53 53 52 52 51 51 51 50 50 50 49 49 49 49 49 48 48 47
63 63 63 63 62 62 62 63 63 63 63 63 64 64 65 65 66 66 66 66 66 66 66 66 64 63 63 63 63 63 63 62 63 63 63 62 60 58 57 57 56 56 55 55 55 53 53 52 53 53 53 53 52 52 51 50 50 50 50 50 49 48 48 48 48 47 47 46 46
61 62 62 63 62 62 63 62 62 62 62 62 63 63 64 65 65 65 66 66 66 66 66 65 64 63 63 62 63 63 64 63 62 62 62 61 60 59 57 56 56 55 54 54 54 54 54 54 54 53 53 52 52 52 51 50 50 49 49 49 48 48 47 47 46 46 46 45 45
60 60 61 61 61 61 62 63 62 62 62 62 61 61 62 63 64 64 64 65 65 64 65 65 64 64 63 62 62 61 61 61 60 61 62 63 61 59 57 56 55 55 54 54 55 55 55 54 53 53 52 52 52 52 51 50 49 48 48 47 47 46 46 45 45 45 45 44 44
59 60 60 60 60 61 61 61 61 61 61 61 61 61 61 62 62 62 62 63 63 64 64 64 64 64 64 62 60 60 59 58 58 57 57 56 56 56 55 54 54 55 55 55 55 55 55 54 53 52 52 52 51 50 50 49 49 48 47 46 45 45 45 44 45 44 44 43 43
59 59 59 59 60 60 60 60 60 60 61 61 61 60 60 61 61 61 61 61 61 62 63 63 64 63 63 62 60 59 58 57 57 56 55 55 54 54 54 54 54 54 54 54 54 54 54 53 52 51 51 50 49 49 49 49 48 47 45 44 44 44 44 44 44 44 44 43 42
58 58 58 59 59 59 59 59 60 60 60 60 60 60 60 61 61 60 60 59 60 61 62 62 61 61 60 60 59 58 57 56 55 55 55 54 54 53 52 53 53 53 53 54 54 53 52 52 51 50 49 48 48 48 48 48 47 45 44 43 43 43 43 43 43 43 43 43 42
57 57 57 57 58 58 59 59 59 59 59 59 59 59 60 60 60 60 60 60 60 60 60 60 60 59 59 58 57 56 56 56 56 56 55 55 53 52 51 51 52 52 52 52 52 52 50 49 48 47 47 47 47 47 47 47 45 44 44 43 43 42 42 42 42 43 42 42 42
56 57 57 57 57 58 58 58 58 59 59 58 59 59 59 59 59 59 59 59 59 58 58 58 58 58 57 56 56 55 55 56 56 55 54 53 52 52 51 51 50 50 50 50 50 49 48 47 46 45 45 46 46 46 46 46 45 44 43 43 42 42 41 41 41 41 41 41 41
56 56 56 56 57 57 58 58 58 58 58 59 59 59 59 58 58 58 58 57 56 56 56 56 56 57 57 56 56 57 58 57 55 54 53 53 53 52 51 51 50 49 48 48 48 47 47 46 46 45 45 45 45 45 45 45 44 43 42 42 41 40 40 41 40 40 40 40 40
55 56 56 56 57 57 57 57 58 58 59 59 59 58 58 57 56 56 56 55 54 55 55 56 56 57 57 58 58 58 58 57 56 55 54 53 52 51 50 50 49 49 48 47 47 46 45 45 45 45 45 44 44 44 45 44 44 43 42 41 40 40 40 40 40 40 40 39 39
55 55 56 56 57 57 57 57 58 58 58 57 57 57 56 55 55 55 55 54 54 54 54 55 56 57 57 57 58 58 57 56 55 54 53 52 50 50 49 48 47 47 46 47 47 46 44 43 44 44 44 43 43 43 44 44 43 43 42 41 41 40 40 40 40 40 39 39 39
55 55 55 56 56 57 57 57 58 57 56 55 55 55 54 54 54 54 54 53 54 54 54 55 55 56 56 57 57 56 56 55 54 52 51 50 49 49 48 47 46 45 44 45 45 45 44 43 43 43 42 42 42 42 43 43 43 42 42 42 41 40 40 40 40 40 39 39 39
54 54 55 55 55 55 56 56 56 55 54 53 53 53 53 53 53 53 53 53 54 54 54 53 53 54 54 55 54 54 53 53 53 51 49 48 48 47 47 46 45 45 44 43 43 43 43 42 42 41 41 41 41 41 41 41 41 41 41 41 40 40 40 40 40 39 39 39 39
52 53 53 53 53 53 53 53 53 53 52 51 51 51 51 52 52 52 52 53 53 53 52 52 52 52 52 52 52 52 51 51 51 50 49 47 47 46 45 45 45 45 44 43 42 42 41 41 41 41 40 40 40 40 40 41 41 41 40 40 40 40 40 40 40 39 39 39 38
50 51 51 51 51 51 51 51 50 50 49 49 49 49 50 50 50 50 50 51 51 51 50 50 50 50 49 49 49 49 49 49 48 48 47 47 46 45 44 44 44 44 44 43 42 41 41 41 41 41 41 41 40 40 40 41 41 40 40 40 40 40 40 40 39 39 39 38 38
49 49 49 49 49 49 49 49 49 48 48 48 48 48 49 48 49 49 48 48 49 48 48 48 48 48 47 47 47 47 47 47 46 46 46 46 45 44 44 43 44 44 43 43 42 41 41 42 41 41 41 41 40 40 40 40 40 40 40 40 40 39 39 39 39 39 38 38 38
47 48 48 48 48 48 48 49 48 48 48 48 48 47 47 47 47 47 47 47 47 47 47 46 46 46 46 46 45 45 45 45 45 45 45 45 44 44 43 43 43 43 43 42 42 42 41 41 41 41 40 40 40 40 40 39 39 39 40 39 39 39 39 39 39 39 38 38 38
47 48 48 48 48 48 48 48 48 48 48 47 47 47 46 46 46 46 46 46 46 46 45 45 45 45 45 44 44 44 44 44 44 44 44 44 43 43 43 43 43 42 42 42 42 42 42 41 41 41 40 40 40 40 39 39 39 39 39 39 39 39 39 39 39 39 38 38 38
47 48 48 48 48 48 48 48 47 47 47 46 46 46 46 45 45 45 45 45 45 45 44 44 44 44 44 43 43 43 43 43 43 43 43 43 43 43 43 43 42 42 41 41 41 41 41 41 41 41 41 40 40 40 40 40 39 39 39 38 38 38 38 38 37 37 37 38 38
47 47 47 47 47 47 47 47 46 46 46 45 45 45 45 45 45 45 45 45 45 44 44 44 43 43 43 43 43 43 43 43 42 42 42 42 42 42 42 42 41 41 41 41 41 41 41 41 41 41 41 40 40 40 40 39 38 37 37 36 36 36 36 35 35 35 35 36 36
46 46 46 46 46 46 46 46 45 45 45 45 45 45 45 45 45 45 45 44 44 44 44 44 43 43 43 43 43 42 42 42 41 41 41 41 41 41 41 41 41 41 41 41 41 41 41 41 41 41 41 40 40 40 39 38 37 36 36 35 35 35 35 34 35 35 35 36 36
45 45 45 45 45 45 45 45 44 44 44 44 44 44 44 44 44 44 44 44 44 44 44 44 43 43 43 43 43 42 42 41 41 41 41 41 41 41 41 41 41 41 42 43 44 44 44 43 42 41 40 40 39 39 38 38 37 37 36 36 35 35 34 34 34 35 35 35 36
45 45 44 44 44 44 44 44 44 44 44 44 44 44 44 44 44 43 43 43 43 43 43 43 43 43 43 42 42 42 41 41 41 41 41 40 41 41 41 41 41 42 43 45 45 45 45 44 43 41 40 39 38 38 38 37 37 37 36 36 35 35 34 34 34 34 34 35 35
44 44 44 44 44 43 43 43 43 43 43 43 43 43 43 43 43 43 42 42 42 42 42 42 42 43 43 42 41 41 41 41 41 41 41 41 40 41 41 41 42 42 43 45 45 45 45 44 43 42 40 38 38 37 37 36 36 36 36 36 35 34 34 33 33 34 34 34 34
43 43 43 43 43 43 43 43 43 43 43 42 42 42 43 43 42 42 41 41 41 41 41 41 42 42 41 41 40 40 41 41 41 42 42 41 41 41 41 41 42 43 44 45 45 45 44 44 43 42 40 38 37 36 36 36 35 35 35 35 34 34 34 33 33 33 33 33 33
42 42 42 42 41 41 42 41 41 42 42 42 42 42 42 42 41 41 41 41 41 41 41 41 41 41 41 41 41 41 41 42 42 42 42 42 41 41 41 41 42 43 44 45 45 44 44 43 42 42 41 39 37 36 35 35 35 34 34 34 34 33 33 33 33 33 33 33 33
41 41 41 41 40 40 41 41 41 41 41 41 41 41 41 41 41 41 40 40 40 41 41 41 41 41 41 40 41 41 41 41 41 41 41 40 40 40 41 41 41 42 43 45 44 44 43 43 42 41 40 39 37 35 34 34 34 34 33 33 33 33 33 33 33 33 33 33 33
41 40 40 40 40 40 40 40 40 41 41 41 41 40 40 40 40 40 40 40 41 41 41 41 40 40 40 39 39 39 39 39 39 39 39 39 40 40 40 40 41 42 43 44 44 43 43 42 41 41 40 39 37 35 34 34 33 33 33 33 33 33 33 33 33 33 33 33 33
40 40 40 39 39 39 39 40 40 40 40 40 40 40 40 40 40 40 40 41 41 41 40 40 39 39 38 38 38 38 38 38 38 38 38 38 38 39 39 39 40 41 43 44 43 43 42 41 41 40 39 38 36 34 33 33 33 33 33 33 33 33 33 33 33 33 33 33 33
40 39 39 39 39 39 39 39 39 39 39 39 39 39 39 39 39 39 40 40 40 39 39 38 38 38 38 38 37 37 38 38 38 38 38 38 38 38 38 39 39 41 42 43 42 42 41 41 40 39 38 37 35 34 33 33 33 33 33 32 32 32 32 32 32 32 32 32 32
39 39 39 39 39 39 39 39 39 39 39 38 38 38 38 38 38 39 39 39 39 39 38 38 38 38 37 37 37 37 37 37 37 37 37 37 37 37 37 38 39 40 42 42 42 41 41 40 40 39 38 37 35 33 33 33 32 32 32 32 32 32 32 32 32 32 32 32 32
38 38 38 38 38 38 38 38 38 38 38 38 38 38 38 38 38 38 38 39 38 38 38 37 37 37 37 37 36 36 36 35 35 35 36 36 36 36 36 37 38 40 41 41 41 41 40 40 39 38 37 36 34 33 33 32 32 32 32 32 31 32 32 32 32 32 33 33 34
38 38 38 38 38 38 38 38 37 37 37 37 37 37 37 37 37 38 38 38 37 36 36 36 36 36 35 35 34 34 33 33 33 33 34 34 34 34 34 35 36 39 41 41 40 40 40 39 39 38 37 35 33 33 32 32 32 31 31 31 31 31 31 31 32 32 33 33 33
37 37 37 37 37 37 37 37 36 36 36 36 36 36 36 36 36 37 37 37 36 35 35 35 34 34 33 32 31 31 31 31 32 32 32 33 32 32 32 33 34 36 39 40 40 40 40 39 39 38 36 33 32 31 31 31 30 30 29 29 30 30 31 32 32 32 32 32 32
36 36 36 35 35 35 35 35 35 35 35 35 35 36 36 36 36 36 36 36 35 34 34 33 33 32 31 30 30 30 30 31 31 31 31 31 31 31 30 30 31 34 37 40 40 40 40 39 39 38 36 32 30 30 30 30 29 29 30 30 30 31 31 31 31 31 31 32 34
35 34 34 34 34 34 34 34 34 34 34 34 35 35 36 36 36 36 36 36 34 34 34 33 33 32 30 30 30 29 29 29 30 30 30 29 30 31 31 29 29 32 35 40 40 40 40 40 40 39 37 33 30 30 30 30 30 30 30 30 30 30 31 31 31 31 31 32 36
34 33 33 33 34 34 34 34 34 34 34 34 34 34 35 35 36 36 36 36 35 34 34 33 33 32 31 32 30 29 29 28 29 29 30 29 31 33 33 29 29 31 34 39 41 41 41 41 41 41 39 34 31 30 31 30 30 29 29 29 29 30 30 30 30 30 30 31 34
34 33 33 34 34 34 33 33 33 34 34 34 34 34 35 36 36 36 36 36 35 35 34 33 32 31 31 32 30 29 28 28 28 29 29 31 32 33 34 30 29 29 32 37 40 42 42 42 42 42 40 35 32 30 30 30 29 28 28 28 28 28 28 28 28 28 28 27 28
MSLP
1012.88 1012.76 1012.76 1012.72 1012.68 1012.64 1012.60 1012.52 1012.44 1012.36 1012.32 1012.28 1012.24 1012.20 1012.20 1012.20 1012.24 1012.24 1012.32 1012.44 1012.56 1012.64 1012.64 1012.60 1012.56 1012.56 1012.60 1012.76 1012.76 1012.84 1012.88 1012.92 1013.00 1013.04 1013.16 1013.24 1013.40 1013.56 1013.72 1013.88 1014.04 1014.24 1014.44 1014.56 1014.76 1014.92 1015.04 1015.20 1015.36 1015.56 1015.76 1015.92 1016.12 1016.28 1016.36 1016.48 1016.48 1016.48 1016.60 1016.76 1016.76 1016.76 1016.76 1016.84 1016.96 1017.08 1017.16 1017.20 1017.20
1012.96 1012.88 1012.80 1012.76 1012.68 1012.64 1012.64 1012.60 1012.52 1012.44 1012.32 1012.32 1012.28 1012.24 1012.20 1012.20 1012.24 1012.24 1012.20 1012.24 1012.32 1012.36 1012.44 1012.48 1012.52 1012.60 1012.84 1013.04 1013.00 1013.00 1013.04 1013.04 1013.04 1013.12 1013.20 1013.32 1013.40 1013.52 1013.72 1013.92 1014.08 1014.24 1014.36 1014.48 1014.56 1014.64 1014.76 1014.96 1015.20 1015.48 1015.72 1015.92 1016.16 1016.32 1016.48 1016.60 1016.60 1016.68 1016.76 1016.76 1016.80 1016.80 1016.76 1016.72 1016.80 1016.92 1017.00 1017.04 1017.16
1013.20 1013.08 1013.04 1012.92 1012.88 1012.84 1012.76 1012.72 1012.64 1012.56 1012.48 1012.40 1012.32 1012.24 1012.24 1012.24 1012.24 1012.24 1012.24 1012.20 1012.20 1012.20 1012.28 1012.36 1012.48 1012.68 1012.88 1012.92 1012.92 1013.00 1013.04 1013.04 1013.12 1013.20 1013.32 1013.48 1013.56 1013.64 1013.76 1013.92 1014.08 1014.20 1014.32 1014.44 1014.48 1014.60 1014.80 1015.04 1015.32 1015.56 1015.76 1016.00 1016.20 1016.36 1016.52 1016.60 1016.72 1016.80 1016.92 1016.92 1016.92 1016.92 1016.92 1016.88 1016.88 1016.92 1017.00 1017.04 1017.20
1013.44 1013.32 1013.28 1013.20 1013.12 1013.04 1013.00 1012.92 1012.84 1012.76 1012.64 1012.52 1012.44 1012.36 1012.32 1012.32 1012.28 1012.28 1012.28 1012.20 1012.20 1012.24 1012.28 1012.32 1012.44 1012.60 1012.72 1012.80 1012.92 1012.96 1013.04 1013.04 1013.12 1013.20 1013.32 1013.48 1013.68 1013.80 1013.92 1014.04 1014.16 1014.24 1014.32 1014.40 1014.56 1014.76 1015.00 1015.24 1015.48 1015.72 1015.92 1016.12 1016.24 1016.36 1016.52 1016.64 1016.80 1016.92 1017.04 1017.08 1017.16 1017.20 1017.24 1017.24 1017.28 1017.28 1017.20 1017.24 1017.36
1013.64 1013.60 1013.48 1013.40 1013.32 1013.24 1013.16 1013.04 1013.04 1012.92 1012.76 1012.64 1012.60 1012.56 1012.48 1012.44 1012.40 1012.40 1012.40 1012.40 1012.44 1012.44 1012.44 1012.48 1012.52 1012.60 1012.72 1012.84 1012.96 1013.04 1013.08 1013.20 1013.44 1013.56 1013.56 1013.60 1013.76 1013.88 1014.00 1014.08 1014.20 1014.32 1014.40 1014.52 1014.72 1014.92 1015.20 1015.40 1015.64 1015.84 1016.04 1016.24 1016.36 1016.48 1016.60 1016.76 1016.92 1017.04 1017.20 1017.28 1017.32 1017.44 1017.48 1017.52 1017.52 1017.48 1017.48 1017.60 1017.76
1013.84 1013.76 1013.64 1013.56 1013.48 1013.44 1013.32 1013.20 1013.12 1013.04 1012.92 1012.84 1012.84 1012.76 1012.76 1012.68 1012.64 1012.64 1012.68 1012.68 1012.68 1012.64 1012.64 1012.64 1012.76 1012.80 1012.92 1013.04 1013.20 1013.24 1013.32 1013.44 1013.64 1013.76 1013.88 1013.92 1013.92 1014.00 1014.12 1014.24 1014.32 1014.44 1014.60 1014.68 1014.84 1015.04 1015.32 1015.52 1015.76 1016.04 1016.20 1016.32 1016.48 1016.60 1016.76 1016.88 1017.04 1017.20 1017.32 1017.44 1017.52 1017.56 1017.60 1017.60 1017.64 1017.64 1017.64 1017.76 1017.96
1014.04 1013.96 1013.88 1013.76 1013.68 1013.60 1013.48 1013.40 1013.32 1013.16 1013.04 1013.04 1013.04 1013.04 1013.04 1012.96 1012.96 1012.96 1012.96 1012.96 1012.92 1012.92 1012.92 1012.92 1013.00 1013.04 1013.20 1013.40 1013.48 1013.52 1013.60 1013.68 1013.84 1013.96 1014.08 1014.20 1014.20 1014.20 1014.28 1014.40 1014.48 1014.56 1014.68 1014.80 1015.00 1015.20 1015.40 1015.60 1015.88 1016.08 1016.28 1016.40 1016.60 1016.76 1016.92 1017.04 1017.20 1017.32 1017.48 1017.64 1017.68 1017.72 1017.72 1017.68 1017.68 1017.72 1017.80 1017.96 1018.12
1014.20 1014.12 1014.04 1014.00 1013.88 1013.76 1013.72 1013.60 1013.48 1013.36 1013.28 1013.20 1013.20 1013.20 1013.20 1013.20 1013.20 1013.20 1013.20 1013.20 1013.28 1013.28 1013.24 1013.24 1013.32 1013.36 1013.48 1013.60 1013.72 1013.76 1013.84 1013.92 1014.04 1014.16 1014.20 1014.32 1014.32 1014.40 1014.48 1014.56 1014.60 1014.72 1014.76 1014.88 1015.00 1015.20 1015.44 1015.64 1015.92 1016.08 1016.28 1016.48 1016.64 1016.84 1017.00 1017.12 1017.28 1017.48 1017.64 1017.76 1017.84 1017.88 1017.84 1017.80 1017.76 1017.80 1017.92 1018.00 1018.20
1014.40 1014.32 1014.20 1014.16 1014.04 1013.92 1013.84 1013.72 1013.64 1013.52 1013.48 1013.40 1013.36 1013.36 1013.36 1013.40 1013.44 1013.44 1013.48 1013.56 1013.56 1013.52 1013.52 1013.60 1013.64 1013.64 1013.68 1013.76 1013.92 1014.00 1014.08 1014.20 1014.28 1014.36 1014.48 1014.52 1014.56 1014.60 1014.64 1014.68 1014.76 1014.80 1014.88 1014.92 1015.00 1015.16 1015.32 1015.56 1015.76 1015.96 1016.16 1016.32 1016.48 1016.68 1016.88 1017.08 1017.32 1017.56 1017.76 1017.92 1018.00 1018.04 1018.00 1017.92 1017.88 1017.88 1017.92 1018.04 1018.16
1014.60 1014.48 1014.40 1014.28 1014.16 1014.04 1013.92 1013.80 1013.68 1013.60 1013.60 1013.60 1013.56 1013.56 1013.64 1013.68 1013.72 1013.76 1013.76 1013.80 1013.80 1013.80 1013.88 1013.92 1013.92 1013.92 1013.96 1014.04 1014.16 1014.24 1014.32 1014.36 1014.48 1014.60 1014.64 1014.76 1014.80 1014.84 1014.88 1014.92 1014.96 1015.00 1015.04 1015.08 1015.12 1015.16 1015.28 1015.44 1015.60 1015.72 1015.80 1015.92 1016.04 1016.24 1016.52 1016.80 1017.16 1017.48 1017.76 1017.92 1018.08 1018.16 1018.12 1018.04 1017.96 1017.92 1017.96 1018.04 1018.16
1014.76 1014.64 1014.52 1014.44 1014.28 1014.16 1014.04 1013.92 1013.76 1013.72 1013.68 1013.72 1013.76 1013.84 1013.92 1014.00 1014.04 1014.04 1014.04 1014.04 1014.04 1014.08 1014.12 1014.16 1014.16 1014.20 1014.24 1014.32 1014.36 1014.44 1014.48 1014.60 1014.72 1014.80 1014.88 1014.96 1015.04 1015.16 1015.20 1015.24 1015.28 1015.32 1015.40 1015.48 1015.52 1015.60 1015.64 1015.68 1015.76 1015.76 1015.72 1015.72 1015.76 1015.80 1015.96 1016.28 1016.76 1017.20 1017.60 1017.88 1018.08 1018.20 1018.24 1018.20 1018.08 1018.04 1018.08 1018.16 1018.24
1014.88 1014.76 1014.60 1014.48 1014.36 1014.20 1014.08 1014.00 1013.92 1013.88 1013.92 1013.96 1014.04 1014.16 1014.24 1014.32 1014.36 1014.36 1014.32 1014.32 1014.32 1014.36 1014.36 1014.32 1014.36 1014.40 1014.48 1014.56 1014.60 1014.60 1014.68 1014.80 1014.92 1014.96 1015.04 1015.20 1015.28 1015.36 1015.48 1015.52 1015.64 1015.72 1015.80 1015.92 1016.00 1016.08 1016.12 1016.16 1016.16 1016.12 1016.04 1016.00 1015.84 1015.68 1015.64 1015.80 1016.20 1016.72 1017.20 1017.56 1017.92 1018.20 1018.32 1018.32 1018.32 1018.24 1018.28 1018.32 1018.40
1015.00 1014.88 1014.76 1014.60 1014.48 1014.32 1014.20 1014.16 1014.12 1014.12 1014.20 1014.32 1014.36 1014.48 1014.60 1014.64 1014.64 1014.60 1014.64 1014.64 1014.68 1014.68 1014.64 1014.60 1014.60 1014.64 1014.68 1014.72 1014.76 1014.80 1014.92 1014.96 1015.04 1015.12 1015.24 1015.36 1015.48 1015.56 1015.64 1015.76 1015.88 1016.00 1016.12 1016.28 1016.32 1016.44 1016.52 1016.56 1016.60 1016.60 1016.56 1016.48 1016.28 1016.04 1015.92 1015.88 1016.08 1016.40 1016.80 1017.24 1017.68 1018.04 1018.28 1018.40 1018.48 1018.48 1018.48 1018.48 1018.56
1015.16 1015.04 1014.92 1014.80 1014.64 1014.52 1014.44 1014.36 1014.36 1014.48 1014.56 1014.68 1014.76 1014.80 1014.88 1014.92 1014.92 1014.92 1014.92 1014.96 1014.96 1014.96 1014.96 1014.92 1014.92 1014.92 1014.92 1014.92 1014.92 1014.96 1015.04 1015.08 1015.20 1015.32 1015.44 1015.56 1015.64 1015.76 1015.88 1016.00 1016.12 1016.20 1016.32 1016.48 1016.60 1016.68 1016.80 1016.92 1016.96 1017.00 1016.92 1016.80 1016.60 1016.44 1016.32 1016.32 1016.40 1016.56 1016.80 1017.16 1017.52 1017.88 1018.20 1018.36 1018.48 1018.56 1018.60 1018.60 1018.68
1015.40 1015.28 1015.16 1015.04 1014.92 1014.84 1014.76 1014.76 1014.76 1014.88 1014.96 1015.04 1015.08 1015.12 1015.12 1015.20 1015.20 1015.20 1015.20 1015.20 1015.20 1015.24 1015.24 1015.20 1015.24 1015.20 1015.20 1015.20 1015.20 1015.20 1015.28 1015.32 1015.48 1015.64 1015.76 1015.80 1015.92 1015.96 1016.04 1016.20 1016.32 1016.48 1016.60 1016.68 1016.80 1016.92 1017.00 1017.08 1017.16 1017.12 1017.04 1016.92 1016.80 1016.72 1016.68 1016.68 1016.76 1016.84 1017.00 1017.24 1017.48 1017.80 1018.04 1018.32 1018.48 1018.60 1018.68 1018.76 1018.76
1015.64 1015.56 1015.48 1015.36 1015.28 1015.24 1015.20 1015.20 1015.20 1015.28 1015.36 1015.44 1015.44 1015.48 1015.48 1015.48 1015.48 1015.48 1015.48 1015.48 1015.44 1015.48 1015.48 1015.52 1015.56 1015.56 1015.52 1015.52 1015.56 1015.60 1015.64 1015.68 1015.76 1015.92 1016.00 1016.08 1016.16 1016.20 1016.32 1016.48 1016.60 1016.72 1016.88 1016.96 1017.04 1017.16 1017.20 1017.24 1017.24 1017.20 1017.12 1017.04 1017.00 1016.96 1016.96 1016.92 1017.00 1017.08 1017.24 1017.40 1017.60 1017.76 1018.00 1018.20 1018.44 1018.64 1018.80 1018.92 1018.92
1015.96 1015.88 1015.76 1015.76 1015.64 1015.64 1015.64 1015.64 1015.64 1015.72 1015.76 1015.84 1015.84 1015.84 1015.80 1015.80 1015.80 1015.76 1015.80 1015.80 1015.76 1015.76 1015.80 1015.84 1015.88 1015.88 1015.88 1015.88 1015.88 1015.92 1015.96 1016.00 1016.08 1016.16 1016.24 1016.36 1016.44 1016.56 1016.64 1016.76 1016.92 1017.00 1017.08 1017.16 1017.24 1017.32 1017.36 1017.36 1017.36 1017.32 1017.32 1017.28 1017.24 1017.20 1017.20 1017.20 1017.28 1017.32 1017.48 1017.64 1017.76 1017.80 1017.92 1018.16 1018.44 1018.76 1018.92 1019.04 1019.00
1016.28 1016.20 1016.12 1016.08 1016.04 1016.00 1016.00 1016.04 1016.04 1016.12 1016.16 1016.20 1016.20 1016.20 1016.16 1016.16 1016.16 1016.16 1016.16 1016.12 1016.08 1016.08 1016.08 1016.16 1016.20 1016.20 1016.20 1016.20 1016.24 1016.24 1016.28 1016.32 1016.40 1016.48 1016.60 1016.68 1016.76 1016.84 1016.96 1017.04 1017.16 1017.20 1017.28 1017.36 1017.40 1017.44 1017.48 1017.52 1017.52 1017.52 1017.48 1017.48 1017.52 1017.56 1017.56 1017.56 1017.60 1017.64 1017.72 1017.80 1017.88 1017.92 1018.00 1018.16 1018.48 1018.80 1019.04 1019.08 1019.04
1016.52 1016.48 1016.44 1016.36 1016.32 1016.32 1016.32 1016.32 1016.36 1016.40 1016.44 1016.48 1016.48 1016.48 1016.48 1016.48 1016.48 1016.48 1016.44 1016.40 1016.40 1016.40 1016.40 1016.44 1016.48 1016.48 1016.48 1016.52 1016.56 1016.60 1016.60 1016.68 1016.76 1016.80 1016.92 1016.96 1017.04 1017.12 1017.20 1017.28 1017.32 1017.40 1017.48 1017.52 1017.60 1017.64 1017.64 1017.68 1017.68 1017.72 1017.76 1017.76 1017.84 1017.88 1017.88 1017.92 1017.92 1017.92 1017.96 1018.04 1018.04 1018.08 1018.16 1018.28 1018.60 1018.92 1019.12 1019.16 1019.16
1016.76 1016.72 1016.68 1016.68 1016.64 1016.60 1016.60 1016.64 1016.68 1016.68 1016.72 1016.76 1016.76 1016.76 1016.76 1016.76 1016.76 1016.72 1016.68 1016.72 1016.72 1016.68 1016.68 1016.68 1016.72 1016.76 1016.76 1016.76 1016.80 1016.88 1016.92 1017.04 1017.08 1017.12 1017.20 1017.20 1017.28 1017.32 1017.40 1017.48 1017.52 1017.60 1017.64 1017.72 1017.76 1017.84 1017.88 1017.88 1017.92 1018.00 1018.04 1018.04 1018.12 1018.16 1018.20 1018.20 1018.20 1018.20 1018.24 1018.24 1018.24 1018.28 1018.32 1018.52 1018.80 1019.04 1019.20 1019.28 1019.32
1017.00 1016.92 1016.92 1016.92 1016.92 1016.92 1016.92 1016.92 1016.96 1016.96 1016.96 1017.00 1017.00 1017.00 1017.00 1016.96 1016.96 1016.96 1016.96 1017.00 1016.96 1016.92 1016.92 1016.96 1017.00 1017.00 1017.00 1017.00 1017.04 1017.08 1017.20 1017.24 1017.32 1017.36 1017.44 1017.48 1017.52 1017.60 1017.64 1017.68 1017.76 1017.84 1017.88 1017.92 1017.96 1018.04 1018.08 1018.12 1018.16 1018.20 1018.28 1018.32 1018.32 1018.36 1018.36 1018.36 1018.36 1018.40 1018.40 1018.40 1018.40 1018.48 1018.60 1018.84 1019.04 1019.24 1019.36 1019.48 1019.56
1017.20 1017.20 1017.16 1017.20 1017.20 1017.20 1017.20 1017.20 1017.20 1017.20 1017.20 1017.20 1017.20 1017.20 1017.20 1017.20 1017.16 1017.16 1017.20 1017.20 1017.20 1017.16 1017.20 1017.20 1017.20 1017.24 1017.24 1017.28 1017.28 1017.32 1017.36 1017.44 1017.52 1017.64 1017.72 1017.76 1017.80 1017.88 1017.92 1017.92 1018.00 1018.08 1018.16 1018.20 1018.24 1018.28 1018.32 1018.32 1018.36 1018.40 1018.48 1018.52 1018.52 1018.52 1018.52 1018.48 1018.48 1018.48 1018.48 1018.52 1018.60 1018.80 1019.04 1019.20 1019.36 1019.48 1019.64 1019.68 1019.76
1017.48 1017.44 1017.44 1017.44 1017.44 1017.44 1017.40 1017.44 1017.44 1017.44 1017.44 1017.40 1017.40 1017.36 1017.32 1017.32 1017.36 1017.36 1017.36 1017.32 1017.32 1017.32 1017.36 1017.44 1017.44 1017.48 1017.48 1017.52 1017.52 1017.52 1017.56 1017.60 1017.68 1017.80 1017.92 1018.04 1018.08 1018.12 1018.16 1018.20 1018.20 1018.32 1018.40 1018.48 1018.48 1018.52 1018.56 1018.56 1018.60 1018.60 1018.64 1018.68 1018.72 1018.72 1018.72 1018.72 1018.68 1018.68 1018.72 1018.80 1019.00 1019.20 1019.36 1019.48 1019.64 1019.76 1019.88 1019.92 1019.92
1017.72 1017.72 1017.72 1017.72 1017.68 1017.64 1017.64 1017.64 1017.64 1017.60 1017.56 1017.52 1017.52 1017.48 1017.48 1017.48 1017.52 1017.52 1017.52 1017.48 1017.48 1017.48 1017.52 1017.56 1017.64 1017.64 1017.68 1017.72 1017.76 1017.76 1017.76 1017.76 1017.88 1018.00 1018.12 1018.20 1018.28 1018.32 1018.32 1018.32 1018.40 1018.48 1018.52 1018.60 1018.68 1018.72 1018.72 1018.72 1018.72 1018.76 1018.80 1018.84 1018.88 1018.92 1018.96 1018.96 1018.92 1018.92 1019.04 1019.20 1019.36 1019.48 1019.60 1019.76 1019.92 1020.04 1020.08 1020.08 1020.04
1017.92 1017.92 1017.92 1017.92 1017.88 1017.84 1017.80 1017.76 1017.76 1017.72 1017.72 1017.68 1017.68 1017.68 1017.68 1017.68 1017.68 1017.68 1017.64 1017.64 1017.64 1017.68 1017.68 1017.72 1017.76 1017.80 1017.88 1017.92 1017.96 1017.96 1017.96 1018.00 1018.04 1018.20 1018.32 1018.40 1018.40 1018.40 1018.40 1018.48 1018.48 1018.56 1018.60 1018.60 1018.64 1018.72 1018.76 1018.76 1018.84 1018.92 1019.00 1019.04 1019.12 1019.16 1019.20 1019.16 1019.20 1019.24 1019.36 1019.48 1019.64 1019.72 1019.84 1020.00 1020.16 1020.24 1020.28 1020.28 1020.28
1018.12 1018.08 1018.04 1018.04 1018.04 1018.00 1017.92 1017.92 1017.92 1017.92 1017.92 1017.92 1017.92 1017.92 1017.88 1017.88 1017.84 1017.80 1017.80 1017.80 1017.84 1017.88 1017.92 1017.92 1018.00 1018.04 1018.12 1018.16 1018.16 1018.16 1018.20 1018.20 1018.28 1018.32 1018.44 1018.48 1018.48 1018.48 1018.52 1018.60 1018.60 1018.60 1018.60 1018.60 1018.64 1018.76 1018.84 1018.92 1019.04 1019.16 1019.20 1019.28 1019.28 1019.32 1019.32 1019.36 1019.48 1019.56 1019.64 1019.72 1019.80 1019.92 1020.04 1020.20 1020.36 1020.44 1020.48 1020.48 1020.48
1018.24 1018.20 1018.20 1018.20 1018.20 1018.16 1018.16 1018.16 1018.12 1018.12 1018.12 1018.08 1018.08 1018.04 1018.04 1018.00 1017.96 1017.96 1017.96 1018.00 1018.04 1018.04 1018.08 1018.20 1018.20 1018.28 1018.32 1018.32 1018.32 1018.32 1018.32 1018.40 1018.44 1018.48 1018.52 1018.56 1018.60 1018.60 1018.64 1018.68 1018.72 1018.72 1018.76 1018.76 1018.80 1018.88 1018.96 1019.08 1019.20 1019.32 1019.40 1019.48 1019.48 1019.48 1019.48 1019.60 1019.68 1019.76 1019.88 1019.96 1020.04 1020.12 1020.28 1020.44 1020.52 1020.60 1020.60 1020.68 1020.72
1018.40 1018.40 1018.40 1018.36 1018.32 1018.32 1018.32 1018.32 1018.32 1018.32 1018.32 1018.28 1018.24 1018.24 1018.20 1018.12 1018.12 1018.12 1018.12 1018.20 1018.24 1018.24 1018.32 1018.36 1018.44 1018.48 1018.48 1018.52 1018.52 1018.52 1018.52 1018.56 1018.60 1018.60 1018.60 1018.64 1018.64 1018.72 1018.76 1018.80 1018.88 1018.92 1018.92 1019.00 1019.04 1019.08 1019.20 1019.28 1019.40 1019.52 1019.64 1019.64 1019.64 1019.64 1019.72 1019.76 1019.88 1019.96 1020.04 1020.20 1020.28 1020.36 1020.48 1020.60 1020.68 1020.72 1020.76 1020.80 1020.80
1018.60 1018.60 1018.60 1018.56 1018.56 1018.56 1018.56 1018.52 1018.52 1018.52 1018.48 1018.48 1018.44 1018.36 1018.32 1018.28 1018.28 1018.32 1018.32 1018.32 1018.36 1018.40 1018.48 1018.56 1018.60 1018.64 1018.72 1018.72 1018.72 1018.72 1018.72 1018.76 1018.76 1018.76 1018.76 1018.76 1018.80 1018.88 1018.92 1018.96 1019.04 1019.08 1019.12 1019.16 1019.24 1019.32 1019.40 1019.48 1019.60 1019.68 1019.76 1019.76 1019.84 1019.88 1019.92 1019.92 1020.04 1020.20 1020.28 1020.36 1020.48 1020.56 1020.60 1020.68 1020.76 1020.80 1020.84 1020.84 1020.88
1018.80 1018.76 1018.76 1018.76 1018.76 1018.76 1018.76 1018.76 1018.76 1018.72 1018.68 1018.60 1018.60 1018.52 1018.48 1018.48 1018.48 1018.48 1018.48 1018.48 1018.52 1018.60 1018.68 1018.76 1018.80 1018.88 1018.92 1019.00 1019.00 1019.00 1019.04 1019.04 1019.04 1019.04 1019.04 1019.04 1019.04 1019.08 1019.16 1019.20 1019.20 1019.28 1019.32 1019.32 1019.40 1019.48 1019.60 1019.68 1019.76 1019.80 1019.88 1019.96 1020.04 1020.08 1020.12 1020.20 1020.32 1020.40 1020.48 1020.60 1020.64 1020.72 1020.76 1020.80 1020.88 1020.88 1020.92 1020.92 1020.92
1019.00 1018.96 1018.96 1018.96 1018.92 1018.92 1018.96 1018.92 1018.92 1018.88 1018.84 1018.80 1018.72 1018.68 1018.64 1018.64 1018.64 1018.64 1018.64 1018.64 1018.72 1018.80 1018.92 1019.00 1019.04 1019.20 1019.28 1019.32 1019.32 1019.32 1019.32 1019.36 1019.40 1019.36 1019.32 1019.32 1019.32 1019.36 1019.40 1019.44 1019.48 1019.48 1019.48 1019.52 1019.60 1019.68 1019.76 1019.88 1019.96 1020.04 1020.16 1020.20 1020.32 1020.36 1020.44 1020.48 1020.56 1020.60 1020.72 1020.80 1020.84 1020.92 1020.92 1020.92 1020.96 1021.00 1021.00 1021.00 1021.00
1019.20 1019.12 1019.12 1019.12 1019.12 1019.08 1019.08 1019.08 1019.04 1019.04 1018.96 1018.92 1018.88 1018.84 1018.80 1018.80 1018.80 1018.80 1018.84 1018.88 1018.92 1019.04 1019.20 1019.28 1019.36 1019.48 1019.60 1019.64 1019.64 1019.68 1019.68 1019.72 1019.72 1019.72 1019.72 1019.68 1019.68 1019.68 1019.72 1019.72 1019.72 1019.72 1019.72 1019.76 1019.84 1019.92 1020.00 1020.08 1020.20 1020.32 1020.40 1020.48 1020.60 1020.68 1020.76 1020.76 1020.84 1020.92 1020.96 1021.00 1021.04 1021.04 1021.08 1021.08 1021.08 1021.08 1021.08 1021.08 1021.12
1019.32 1019.32 1019.28 1019.24 1019.24 1019.24 1019.24 1019.20 1019.20 1019.20 1019.16 1019.08 1019.04 1019.04 1019.00 1019.00 1019.00 1019.04 1019.08 1019.16 1019.20 1019.32 1019.44 1019.56 1019.64 1019.76 1019.88 1019.92 1019.92 1019.96 1020.00 1020.04 1020.04 1020.04 1020.00 1020.00 1020.00 1019.96 1019.96 1019.96 1019.96 1020.00 1020.04 1020.04 1020.12 1020.20 1020.28 1020.32 1020.44 1020.56 1020.64 1020.76 1020.88 1020.96 1021.04 1021.04 1021.08 1021.12 1021.20 1021.20 1021.20 1021.20 1021.20 1021.20 1021.24 1021.24 1021.24 1021.28 1021.28
1019.48 1019.48 1019.44 1019.44 1019.40 1019.40 1019.40 1019.36 1019.36 1019.32 1019.28 1019.24 1019.20 1019.20 1019.20 1019.24 1019.28 1019.32 1019.36 1019.44 1019.48 1019.64 1019.72 1019.84 1019.92 1020.04 1020.16 1020.20 1020.20 1020.20 1020.24 1020.28 1020.28 1020.28 1020.28 1020.24 1020.20 1020.20 1020.20 1020.24 1020.28 1020.28 1020.32 1020.32 1020.40 1020.48 1020.52 1020.60 1020.68 1020.76 1020.84 1020.96 1021.04 1021.16 1021.20 1021.20 1021.24 1021.28 1021.32 1021.32 1021.36 1021.36 1021.36 1021.40 1021.40 1021.36 1021.36 1021.32 1021.32
1019.64 1019.60 1019.60 1019.56 1019.56 1019.56 1019.56 1019.52 1019.48 1019.44 1019.40 1019.36 1019.40 1019.40 1019.44 1019.48 1019.52 1019.60 1019.64 1019.68 1019.76 1019.92 1020.04 1020.12 1020.20 1020.32 1020.36 1020.40 1020.48 1020.48 1020.48 1020.48 1020.52 1020.52 1020.52 1020.48 1020.44 1020.40 1020.44 1020.48 1020.52 1020.52 1020.52 1020.56 1020.60 1020.68 1020.76 1020.80 1020.92 1020.96 1021.04 1021.16 1021.24 1021.32 1021.32 1021.36 1021.40 1021.44 1021.48 1021.48 1021.48 1021.48 1021.48 1021.48 1021.44 1021.40 1021.36 1021.32 1021.32
1019.76 1019.76 1019.76 1019.76 1019.76 1019.72 1019.68 1019.64 1019.64 1019.60 1019.60 1019.56 1019.60 1019.64 1019.68 1019.76 1019.76 1019.88 1019.92 1020.00 1020.04 1020.16 1020.28 1020.40 1020.48 1020.52 1020.60 1020.64 1020.68 1020.72 1020.72 1020.76 1020.76 1020.76 1020.76 1020.68 1020.68 1020.68 1020.68 1020.76 1020.76 1020.76 1020.76 1020.84 1020.88 1020.92 1021.00 1021.04 1021.12 1021.20 1021.24 1021.32 1021.40 1021.44 1021.48 1021.52 1021.52 1021.56 1021.56 1021.56 1021.56 1021.52 1021.48 1021.48 1021.48 1021.44 1021.44 1021.40 1021.36
1020.00 1019.96 1019.96 1019.92 1019.92 1019.92 1019.88 1019.80 1019.80 1019.76 1019.80 1019.80 1019.84 1019.88 1019.92 1019.96 1020.04 1020.12 1020.20 1020.24 1020.32 1020.44 1020.56 1020.64 1020.76 1020.80 1020.88 1020.92 1020.96 1021.00 1021.04 1020.96 1020.96 1020.96 1020.96 1020.92 1020.92 1020.92 1020.96 1021.04 1021.04 1021.04 1021.04 1021.08 1021.12 1021.16 1021.20 1021.24 1021.32 1021.36 1021.44 1021.48 1021.52 1021.56 1021.60 1021.64 1021.64 1021.64 1021.64 1021.64 1021.64 1021.60 1021.52 1021.48 1021.48 1021.48 1021.48 1021.48 1021.48
1020.24 1020.20 1020.20 1020.16 1020.12 1020.12 1020.08 1020.04 1020.04 1020.04 1020.04 1020.04 1020.04 1020.08 1020.12 1020.20 1020.28 1020.32 1020.44 1020.48 1020.56 1020.68 1020.80 1020.92 1021.00 1021.08 1021.12 1021.16 1021.20 1021.20 1021.20 1021.20 1021.12 1021.12 1021.16 1021.20 1021.20 1021.20 1021.20 1021.24 1021.28 1021.28 1021.28 1021.24 1021.28 1021.32 1021.32 1021.32 1021.40 1021.48 1021.48 1021.56 1021.60 1021.64 1021.64 1021.64 1021.64 1021.68 1021.64 1021.64 1021.64 1021.60 1021.56 1021.52 1021.52 1021.56 1021.56 1021.56 1021.52
1020.48 1020.44 1020.40 1020.36 1020.32 1020.32 1020.32 1020.28 1020.24 1020.20 1020.20 1020.20 1020.24 1020.28 1020.32 1020.36 1020.48 1020.56 1020.64 1020.72 1020.76 1020.92 1021.04 1021.12 1021.20 1021.28 1021.28 1021.32 1021.32 1021.32 1021.32 1021.32 1021.28 1021.24 1021.28 1021.32 1021.32 1021.32 1021.32 1021.40 1021.44 1021.44 1021.40 1021.32 1021.36 1021.36 1021.36 1021.40 1021.40 1021.40 1021.48 1021.56 1021.60 1021.60 1021.60 1021.64 1021.64 1021.64 1021.64 1021.64 1021.64 1021.64 1021.60 1021.56 1021.56 1021.56 1021.60 1021.56 1021.48
1020.60 1020.60 1020.60 1020.60 1020.56 1020.48 1020.48 1020.48 1020.44 1020.44 1020.40 1020.40 1020.44 1020.48 1020.52 1020.60 1020.64 1020.76 1020.84 1020.92 1021.00 1021.08 1021.20 1021.28 1021.36 1021.40 1021.40 1021.40 1021.40 1021.40 1021.48 1021.48 1021.44 1021.40 1021.40 1021.40 1021.40 1021.40 1021.44 1021.48 1021.56 1021.56 1021.48 1021.40 1021.36 1021.36 1021.36 1021.32 1021.32 1021.32 1021.36 1021.48 1021.52 1021.52 1021.52 1021.60 1021.64 1021.68 1021.72 1021.72 1021.68 1021.68 1021.64 1021.60 1021.60 1021.60 1021.60 1021.60 1021.56
1020.68 1020.68 1020.68 1020.72 1020.68 1020.68 1020.64 1020.64 1020.60 1020.60 1020.60 1020.60 1020.60 1020.64 1020.68 1020.72 1020.80 1020.92 1021.04 1021.12 1021.20 1021.24 1021.32 1021.40 1021.48 1021.52 1021.52 1021.48 1021.48 1021.48 1021.52 1021.56 1021.56 1021.52 1021.48 1021.48 1021.48 1021.48 1021.48 1021.56 1021.64 1021.64 1021.60 1021.48 1021.44 1021.40 1021.36 1021.32 1021.32 1021.32 1021.36 1021.48 1021.48 1021.48 1021.52 1021.64 1021.72 1021.76 1021.80 1021.80 1021.76 1021.76 1021.76 1021.72 1021.64 1021.64 1021.64 1021.68 1021.68
Wind_Speed
2 2 1 1 1 2 2 2 3 3 3 3 3 3 3 3 2 1 1 2 3 3 3 3 2 1 0 1 1 1 1 1 1 1 1 2 3 4 5 6 7 7 7 7 6 6 6 5 3 3 3 3 3 2 2 2 2 3 4 4 4 5 6 7 7 7 6 6 4
4 3 2 2 2 1 1 2 2 3 3 2 2 2 3 2 2 2 2 1 2 3 4 3 1 1 2 3 3 2 2 2 1 0 2 3 4 5 6 6 6 6 6 6 5 5 4 4 3 2 2 2 1 1 1 1 1 2 2 3 3 3 4 5 6 6 6 5 4
7 6 6 5 4 3 3 2 3 3 3 3 3 3 3 2 2 2 2 2 1 1 2 2 2 0 1 2 2 2 2 2 1 1 2 3 4 5 5 5 5 4 4 4 3 3 3 2 2 2 1 1 1 1 1 1 1 1 2 2 2 2 2 2 3 3 3 3 4
7 7 7 7 7 7 5 5 5 4 4 3 3 3 3 3 3 3 3 3 3 2 2 1 2 2 2 1 1 1 0 1 2 3 3 3 4 5 5 5 4 4 3 3 4 4 4 4 3 3 2 2 2 2 2 1 1 0 0 1 1 1 1 1 1 1 2 3 3
6 6 6 6 7 7 6 6 6 5 4 4 3 4 4 4 4 4 4 4 4 5 5 5 4 3 3 2 2 3 4 5 5 4 3 4 5 5 5 5 5 4 4 4 5 6 6 5 3 3 3 3 2 2 3 3 3 2 2 2 2 2 2 2 2 3 3 4 4
6 6 6 6 7 6 6 6 6 5 5 4 4 4 5 4 5 5 5 5 6 6 7 7 5 4 4 4 5 6 6 6 4 4 4 4 4 5 5 5 5 5 5 5 6 6 6 5 3 3 3 3 3 3 4 4 4 3 3 3 3 2 2 3 2 3 4 4 4
5 6 6 6 7 6 6 5 5 5 5 4 5 6 6 6 6 7 7 6 6 6 7 6 6 6 5 4 5 5 5 5 5 4 5 5 6 6 7 6 6 6 6 6 7 7 6 5 4 3 3 3 3 4 4 4 4 4 4 3 3 2 3 3 3 3 4 6 5
5 5 6 6 6 6 6 6 5 5 4 4 5 6 7 8 8 8 8 7 6 6 6 6 8 7 6 5 5 5 6 6 6 6 6 6 6 7 7 7 7 7 7 7 7 7 6 5 4 4 4 3 3 4 5 6 5 5 5 4 3 2 2 2 3 3 4 6 6
4 5 5 5 6 6 6 6 5 4 3 3 4 5 7 9 9 8 7 6 6 6 7 7 8 8 7 7 6 6 6 6 6 6 5 5 5 5 5 6 6 6 6 7 8 8 8 6 5 5 4 4 4 5 6 7 7 6 5 4 3 2 2 2 3 4 5 5 6
5 5 5 5 5 6 6 6 5 4 3 3 4 7 8 9 9 8 7 6 6 7 7 7 8 8 8 7 7 6 6 5 5 5 5 5 5 5 4 4 5 5 5 5 6 7 7 6 6 6 6 6 7 8 8 9 8 7 5 3 3 3 3 2 3 4 5 5 5
5 5 5 4 5 6 6 5 4 3 3 4 6 8 10 10 9 8 7 6 7 7 7 7 7 7 7 6 6 6 6 6 5 6 6 6 6 5 5 5 5 5 4 4 3 3 4 4 5 6 7 7 9 10 11 11 10 8 6 4 4 4 3 3 3 3 4 5 5
6 5 5 5 6 6 5 4 3 3 5 7 9 9 10 9 9 9 8 8 7 7 6 7 7 7 7 6 6 6 6 6 6 6 6 6 6 6 6 7 7 7 6 6 5 3 3 2 3 5 6 6 6 8 10 12 12 10 9 7 5 4 4 3 3 3 3 4 5
6 6 6 6 7 6 6 5 4 5 7 9 10 9 9 8 9 9 9 8 8 7 6 7 7 7 7 6 6 6 6 6 6 6 6 6 6 6 7 7 8 8 7 6 6 5 4 3 2 3 3 3 3 5 7 10 11 10 10 9 7 5 4 4 4 3 4 4 5
7 7 7 7 8 7 7 6 6 7 9 10 9 9 8 8 8 8 8 8 7 7 6 7 7 7 7 7 6 6 6 6 6 7 7 6 6 7 7 8 8 8 7 6 6 5 4 3 2 2 2 3 3 4 5 7 8 8 9 8 7 6 5 5 4 4 4 5 6
8 8 8 8 8 8 8 8 7 8 9 9 9 8 7 7 7 7 7 7 7 7 7 7 7 7 8 9 9 8 8 8 8 8 8 8 8 8 8 8 8 7 6 6 5 5 4 3 2 2 3 3 4 4 4 5 5 6 6 7 7 6 5 5 4 4 4 5 6
8 9 9 9 9 9 9 8 8 8 9 9 9 8 7 7 7 7 8 8 7 7 8 8 8 8 8 9 10 9 9 9 9 9 9 8 9 9 9 8 8 7 6 6 5 4 4 3 3 3 3 4 4 4 4 4 5 5 6 6 6 6 6 6 5 4 4 4 5
8 9 9 9 10 10 9 9 8 8 8 9 9 8 8 7 7 8 9 9 8 8 9 9 8 8 8 8 9 9 8 9 9 9 9 9 9 9 9 8 7 6 6 5 5 5 5 4 4 5 5 5 5 5 5 5 5 6 6 6 6 6 7 7 6 4 4 4 5
8 8 9 9 9 10 10 9 9 9 9 9 8 8 8 8 8 8 9 9 9 9 9 9 8 8 8 9 8 8 8 9 9 9 9 9 9 8 8 7 7 6 6 5 5 5 5 5 5 5 5 5 5 5 5 6 6 6 7 7 7 7 7 7 6 5 4 4 5
8 8 8 9 9 9 9 9 9 9 8 8 8 9 9 9 9 8 8 9 9 9 9 9 8 8 9 9 9 8 8 9 9 9 9 9 8 8 7 7 6 6 6 6 6 5 5 5 6 6 6 5 5 5 6 6 6 6 7 7 7 7 8 8 7 6 5 5 6
7 8 8 8 9 9 9 9 9 9 8 8 8 9 9 9 9 9 9 9 9 9 9 9 8 8 9 9 9 9 8 8 8 9 9 8 8 7 7 7 7 6 6 6 6 5 5 6 6 6 6 6 6 6 6 6 6 7 7 7 7 8 8 8 7 6 6 6 6
7 8 9 9 9 9 9 8 9 9 8 8 8 8 8 8 9 9 9 9 9 9 9 9 9 8 9 9 9 9 8 7 8 8 8 8 8 8 7 7 7 6 6 6 6 6 6 6 6 6 5 5 6 6 6 6 7 7 8 7 8 9 9 8 8 7 7 6 5
8 8 8 9 8 8 8 8 8 8 8 8 8 8 8 8 8 8 8 8 8 9 9 9 9 9 9 8 8 8 8 8 9 9 9 8 8 8 8 8 7 7 7 6 6 6 6 6 6 6 5 5 5 6 6 6 7 8 9 10 10 10 10 9 8 7 6 6 5
8 8 8 7 8 8 7 7 7 7 7 7 7 8 8 8 8 8 8 8 8 8 8 8 8 8 9 8 8 8 9 9 10 9 9 8 8 8 7 7 7 7 6 5 5 5 5 5 5 5 5 5 6 6 7 8 9 9 10 11 11 10 9 9 8 7 7 6 6
7 7 6 6 6 7 7 7 7 7 7 7 7 7 7 7 7 7 8 8 8 8 8 7 7 8 9 9 9 9 10 10 10 9 9 8 7 7 6 6 5 5 4 4 4 5 5 4 4 5 5 6 6 7 8 9 9 9 10 10 9 9 9 9 8 7 7 7 6
7 6 6 6 6 6 6 7 7 7 7 7 7 7 7 7 7 7 8 8 9 9 8 8 8 8 8 9 9 9 9 9 9 8 8 7 6 6 5 4 4 3 3 4 8 9 8 7 6 5 5 6 7 7 8 8 9 9 9 9 8 8 8 8 8 7 7 7 6
6 6 6 6 6 6 7 7 7 7 7 7 7 7 7 7 7 8 8 9 9 9 9 8 8 8 8 7 8 8 8 7 7 7 7 6 6 5 5 4 3 3 4 7 10 12 12 12 11 9 7 6 6 7 7 8 8 9 8 8 8 8 8 7 7 7 7 6 6
6 6 6 6 6 7 7 6 6 7 7 7 7 7 7 7 7 8 9 9 9 8 8 7 7 7 7 6 7 7 7 6 6 6 6 6 6 5 5 4 4 5 7 11 13 13 13 14 13 12 9 7 6 7 7 7 8 8 8 8 8 7 7 7 6 6 6 5 5
6 6 6 7 7 7 7 6 6 7 7 7 7 7 7 8 8 8 8 8 8 7 6 6 6 5 5 4 5 6 6 6 6 6 6 6 7 7 7 6 6 7 10 13 14 14 13 14 14 13 11 8 7 7 7 7 7 7 7 7 6 6 6 6 5 5 5 4 4
6 6 6 7 7 7 7 6 6 7 7 7 7 7 8 8 8 8 8 8 7 6 5 4 4 4 4 5 5 6 7 7 7 7 7 8 9 9 9 8 8 9 12 14 13 13 13 13 13 13 12 10 7 5 5 6 6 6 5 5 5 5 5 4 4 4 4 4 4
6 6 6 6 7 7 7 6 6 6 6 6 7 7 7 7 7 7 7 7 7 6 5 5 5 6 7 7 7 8 8 8 8 8 9 10 10 10 9 9 8 9 11 13 13 13 13 13 13 13 13 12 9 6 5 5 5 5 5 5 5 5 5 4 4 4 4 4 4
6 6 6 6 7 6 6 6 6 6 6 6 6 7 7 7 7 7 7 7 7 8 8 9 9 10 10 9 9 9 9 9 9 9 9 10 10 10 9 9 8 9 10 13 13 13 13 13 13 14 13 13 9 7 5 5 5 5 5 5 5 5 5 5 5 5 5 4 4
5 5 6 6 6 6 6 6 6 6 6 6 7 7 7 8 8 8 8 8 9 10 10 10 11 11 10 9 9 9 9 9 9 9 9 9 9 9 9 8 8 9 11 14 14 14 14 14 14 15 14 13 10 8 6 6 6 6 6 6 6 6 5 4 4 5 5 5 4
5 5 5 6 6 6 6 6 6 6 6 7 7 8 8 9 9 9 9 9 9 10 10 10 10 10 9 9 9 9 9 9 10 10 10 9 9 9 9 8 8 10 13 15 15 15 15 15 15 15 15 13 10 8 6 6 5 5 5 6 5 5 5 5 4 4 4 3 3
5 5 5 6 6 6 6 6 6 6 7 7 8 8 9 9 9 9 9 9 9 9 9 9 9 9 8 8 8 9 9 9 9 9 9 9 9 9 9 7 7 9 13 15 15 15 15 15 15 15 14 12 9 7 6 6 5 5 5 5 5 4 4 3 3 2 1 0 0
5 5 5 5 5 5 5 6 6 6 7 8 8 9 9 9 9 9 9 9 9 9 9 8 8 8 8 8 8 8 8 8 7 8 8 8 9 9 9 8 8 10 13 14 14 14 14 14 14 14 12 10 7 6 5 6 5 5 5 4 3 3 2 1 0 0 0 1 1
5 5 5 5 5 5 6 6 6 7 7 8 8 8 8 8 8 8 8 9 9 9 8 8 7 7 6 6 6 6 6 6 6 7 7 7 8 8 8 8 8 10 13 14 14 14 14 13 13 12 10 7 5 4 4 4 4 3 3 3 2 1 1 1 1 0 2 3 3
5 5 6 6 6 6 6 6 6 7 7 7 8 8 8 7 7 7 7 7 8 8 8 7 7 6 6 5 5 5 5 5 6 6 7 7 7 7 7 7 7 9 11 13 12 12 12 12 11 10 8 5 3 3 3 3 2 2 2 2 2 2 2 1 1 2 3 4 4
6 6 6 6 6 6 6 6 6 6 7 7 6 6 6 6 6 6 6 6 7 7 7 6 6 6 5 4 5 5 5 5 6 6 6 6 6 6 6 5 5 6 8 10 11 10 10 9 9 8 6 3 2 2 2 2 2 2 1 1 1 1 1 1 2 2 3 3 3
5 6 6 6 6 6 6 6 6 6 6 6 6 6 6 6 5 5 5 6 6 6 6 6 6 5 4 5 5 5 5 5 5 6 6 5 5 5 5 4 3 3 5 8 8 8 7 7 6 6 5 3 2 2 2 2 1 1 1 1 1 0 0 0 1 2 2 3 4
5 5 5 5 5 6 6 6 6 5 5 5 5 5 5 5 5 5 5 5 5 5 5 6 5 5 5 5 5 5 4 4 4 4 4 5 5 6 5 3 2 2 3 6 6 6 6 5 5 5 4 2 2 1 1 1 1 1 1 1 0 0 1 1 0 1 2 2 3
4 4 5 5 5 5 5 5 5 5 4 4 5 5 4 5 5 5 4 5 5 4 4 4 5 4 4 5 5 4 4 3 3 2 3 4 4 5 4 2 2 1 2 4 6 6 7 6 6 6 4 2 1 1 1 2 2 2 2 2 1 1 1 2 2 1 1 1 2
Wind_Direction
321 315 309 309 311 314 315 314 316 319 321 322 322 325 330 339 337 323 183 172 173 185 204 226 222 223 253 305 293 267 241 233 225 194 142 116 109 103 100 101 104 108 112 115 119 124 131 139 146 161 178 189 195 196 186 162 168 173 178 183 185 180 177 178 184 187 187 187 187
351 348 345 340 331 322 317 315 315 317 317 315 318 323 329 337 338 339 341 355 149 164 178 203 214 323 351 340 340 340 333 309 283 170 91 86 94 98 102 106 114 122 131 139 145 150 156 164 175 191 205 205 192 185 177 152 157 167 178 187 191 186 182 184 188 186 180 173 161
3 1 1 359 358 356 354 345 341 337 336 334 339 343 344 346 345 343 340 339 15 141 158 174 166 173 328 339 338 321 303 295 301 50 73 74 83 93 100 107 114 124 135 145 146 143 137 138 145 154 162 157 156 164 166 149 165 187 200 208 212 213 210 210 197 178 160 145 135
5 6 5 3 2 2 1 0 357 355 353 352 353 354 356 357 359 357 355 355 1 8 21 70 113 132 152 183 210 216 195 48 52 72 89 97 95 96 99 102 105 109 115 120 118 113 108 108 110 117 126 134 141 143 140 122 110 91 326 307 333 332 329 341 25 56 77 86 97
4 5 4 1 0 359 359 358 356 353 349 348 353 357 1 6 9 9 10 11 11 12 16 26 57 83 98 104 92 75 64 54 39 41 64 88 97 100 100 98 98 98 99 102 106 107 106 105 100 100 105 110 112 112 108 100 83 63 42 27 21 19 22 26 26 37 50 59 63
0 1 1 359 358 356 354 352 348 345 343 347 359 5 8 12 16 18 19 19 16 16 18 24 41 59 69 68 66 65 62 56 45 38 41 52 71 80 83 82 82 84 87 91 96 99 100 98 91 86 84 84 78 77 82 89 82 72 61 50 43 45 53 59 61 66 71 76 77
360 1 358 355 355 352 348 344 341 340 343 353 6 13 17 20 22 22 22 23 20 18 18 22 29 39 50 59 63 64 65 63 65 66 67 68 66 67 68 70 71 73 77 83 88 90 92 92 91 87 81 76 71 69 72 82 83 79 73 64 54 56 66 76 81 88 94 99 102
0 360 356 352 349 345 341 337 335 336 344 357 9 19 26 30 28 26 25 24 22 20 20 23 25 27 33 46 56 60 61 59 60 62 67 73 74 76 78 81 82 83 86 91 95 98 98 98 98 95 91 87 84 80 78 82 83 82 78 73 65 63 71 87 99 109 115 119 121
0 357 352 347 343 337 331 328 325 328 341 359 15 29 36 37 32 29 27 26 24 24 25 25 23 24 30 42 50 56 60 61 61 62 66 71 76 82 87 92 96 99 102 107 111 115 116 116 116 117 117 117 114 107 99 94 92 91 90 89 86 85 88 102 117 125 129 131 131
357 353 348 341 334 328 323 319 317 321 341 13 31 40 42 38 32 28 27 27 27 28 27 25 24 26 31 38 47 56 62 64 62 60 60 62 64 69 75 81 90 96 102 109 116 120 123 125 130 134 135 134 130 125 118 112 109 107 107 111 114 114 114 117 124 129 132 132 132
351 347 342 334 325 321 317 315 315 330 5 33 42 45 43 37 30 26 26 28 29 28 27 27 27 29 32 33 39 48 57 61 61 60 58 56 55 53 52 53 58 61 64 64 78 94 108 117 127 133 136 137 134 131 128 126 124 124 126 130 131 132 131 130 128 127 128 128 126
345 342 337 331 324 321 320 319 330 3 28 40 44 45 42 35 28 25 25 28 27 25 25 28 31 32 33 32 34 44 53 59 61 61 61 60 58 54 51 48 47 45 42 35 34 39 55 83 110 123 130 135 136 135 133 132 132 133 135 138 138 139 140 139 133 127 124 123 122
344 344 343 338 334 333 335 341 2 27 37 41 42 42 40 35 29 26 26 27 24 22 22 27 32 34 34 34 38 46 55 60 62 63 63 62 62 60 57 54 49 45 41 33 27 27 33 51 83 108 120 128 126 127 129 131 133 135 137 138 141 143 145 144 138 131 126 124 124
351 353 352 351 351 353 358 5 22 35 40 40 39 39 36 34 31 29 28 27 25 24 24 28 31 33 33 33 37 44 51 58 61 61 60 59 61 61 60 57 53 49 44 38 33 31 32 40 64 95 110 110 105 108 114 121 126 130 133 136 140 142 144 142 139 134 129 127 127
360 1 2 3 6 10 14 17 28 35 38 37 35 34 33 32 31 30 29 28 30 31 31 31 31 32 34 36 37 40 45 53 58 59 58 56 57 60 61 60 56 52 48 44 41 40 39 44 58 81 94 98 98 100 103 107 114 119 124 129 133 134 134 132 130 129 129 131 130
7 8 10 13 17 20 22 24 30 35 35 34 32 30 29 29 30 30 29 29 34 37 38 37 34 34 35 38 40 41 45 51 57 59 58 55 56 57 58 59 57 54 52 50 49 46 43 40 46 58 70 81 86 89 91 93 96 100 105 112 117 120 120 117 115 116 122 129 127
12 14 16 19 23 26 28 30 33 35 35 34 32 30 29 28 30 31 31 30 34 39 41 40 38 37 38 39 41 43 46 50 55 57 57 57 56 57 57 57 55 54 53 54 55 52 47 42 43 48 55 64 68 72 77 81 84 88 93 99 104 106 107 106 104 105 111 118 114
15 18 21 24 27 29 32 34 37 38 37 36 34 33 33 32 33 34 34 33 36 40 43 44 42 42 42 43 42 44 47 50 53 56 58 59 59 59 59 57 56 54 54 55 56 56 53 50 48 50 54 59 61 65 70 76 81 86 89 93 95 95 95 95 94 95 98 103 100
18 21 24 27 29 31 34 37 39 40 39 39 38 38 38 37 37 38 39 38 40 43 46 47 47 47 48 49 49 49 50 52 54 57 59 60 62 62 61 59 57 55 55 55 56 56 56 55 55 56 59 63 66 68 72 77 81 85 87 88 88 87 86 85 85 85 86 88 90
20 25 28 30 31 33 35 38 41 42 43 43 43 43 43 42 43 44 44 44 44 47 49 51 52 52 53 55 56 55 53 54 55 56 57 58 59 60 60 58 56 55 55 56 56 56 57 58 60 62 66 71 75 77 79 81 83 84 84 84 82 80 80 80 81 81 82 83 85
24 28 33 35 35 36 38 40 43 45 47 47 47 47 48 47 47 48 49 49 50 52 53 54 54 55 57 59 60 60 59 58 56 54 54 53 53 54 55 55 53 52 51 52 56 59 62 65 67 70 73 77 81 84 87 88 88 86 83 79 75 73 72 74 77 79 81 82 83
27 31 34 36 36 37 40 43 46 48 50 51 51 52 53 52 52 52 53 55 55 56 56 56 56 57 58 59 62 63 63 62 58 55 53 50 50 51 53 54 53 52 51 51 54 59 65 70 73 76 80 82 84 86 87 86 84 82 78 74 71 69 68 69 70 71 72 74 72
29 32 35 37 38 40 43 47 50 52 53 54 55 55 56 56 56 56 57 58 60 60 60 60 59 58 58 58 61 63 66 66 62 59 56 54 53 53 54 56 56 56 56 56 58 61 66 72 76 79 81 82 80 78 77 77 77 76 74 73 73 71 70 68 67 66 65 64 63
34 34 36 38 40 44 47 51 53 54 55 56 56 57 58 59 60 60 60 61 61 61 61 61 60 60 60 61 62 64 66 68 67 65 62 59 59 59 58 59 61 63 68 76 81 83 82 80 78 77 76 74 73 73 73 75 77 78 78 78 78 75 72 69 66 65 64 62 61
40 40 41 43 44 47 50 52 53 55 55 56 57 59 60 62 62 62 62 61 60 60 60 61 62 63 64 65 66 67 68 70 72 72 70 67 65 62 62 62 64 70 85 100 99 97 94 87 79 73 71 73 75 75 76 75 76 77 79 80 79 77 73 69 65 62 60 58 55
45 45 44 45 47 49 51 52 54 55 57 58 60 61 63 64 64 64 63 62 60 58 58 59 63 66 69 70 71 71 72 73 75 77 77 74 70 67 64 63 63 69 81 88 90 90 88 85 81 78 75 75 77 78 76 74 73 73 75 76 76 76 74 72 67 63 60 57 53
46 47 46 46 48 50 51 52 55 57 59 60 61 62 64 64 65 65 64 63 62 60 59 60 65 68 71 72 73 74 75 76 77 78 79 79 76 72 68 64 64 68 73 76 79 81 83 84 83 82 79 76 76 77 77 76 74 72 72 71 72 73 75 76 74 71 66 60 55
45 47 47 46 47 48 49 50 53 57 60 61 61 63 65 66 66 67 67 67 66 65 64 63 64 66 68 69 69 71 73 75 75 76 76 76 74 72 69 67 66 70 73 75 77 80 82 85 86 86 84 80 78 78 79 80 77 75 73 73 74 76 78 80 80 78 75 68 62
45 47 47 46 46 46 46 47 51 55 59 61 63 64 66 67 68 69 70 71 70 69 67 64 62 60 59 59 61 63 65 67 69 71 72 72 71 70 70 70 71 75 78 79 80 82 85 88 90 90 89 86 83 80 79 81 81 80 79 78 79 80 82 84 84 82 79 75 68
46 49 50 49 49 48 47 48 51 55 59 63 65 67 68 69 69 70 71 72 70 68 65 61 59 58 57 57 58 59 60 61 63 66 68 70 70 70 70 70 72 77 81 83 85 86 88 91 92 91 90 86 82 79 77 79 81 81 80 80 79 80 81 80 78 76 73 69 64
49 53 56 57 55 53 52 52 54 56 59 63 65 66 67 67 66 65 65 67 67 67 66 65 64 63 62 60 60 61 61 61 61 62 64 67 68 68 67 66 67 73 79 82 84 86 88 88 88 86 84 80 76 72 70 72 74 75 76 75 74 73 73 73 69 65 61 58 54
51 56 60 62 61 59 57 56 57 58 60 62 63 63 62 61 59 59 60 63 67 68 69 69 69 68 66 63 63 62 62 61 60 60 61 63 65 65 63 62 63 69 75 78 81 83 84 84 83 82 79 76 72 69 67 68 69 71 70 69 67 65 63 62 60 55 51 48 46
52 57 61 64 64 63 62 61 61 62 63 64 63 62 61 60 60 60 61 64 68 70 71 71 70 68 66 65 64 64 63 62 62 62 62 63 64 63 62 59 63 69 73 77 79 81 82 82 82 81 79 76 73 69 66 68 69 69 68 65 62 59 57 55 53 49 45 41 40
52 57 61 64 65 66 66 66 66 66 67 67 65 64 63 63 63 64 65 68 70 71 70 70 69 69 67 66 67 67 67 67 65 64 64 65 66 65 63 59 63 70 74 78 79 80 82 82 82 82 80 77 74 71 69 70 71 70 69 67 63 59 55 53 50 48 43 48 217
50 56 60 63 64 66 67 68 68 69 69 69 67 66 65 65 66 67 69 71 72 72 71 70 71 71 71 69 69 71 72 73 70 69 68 68 69 68 66 63 67 73 76 79 80 82 83 83 83 82 81 78 74 72 73 74 76 76 77 76 73 69 67 63 56 268 275 291 317
47 53 58 61 62 64 66 67 68 69 69 69 69 67 66 66 66 69 72 74 75 74 73 72 72 72 71 69 68 68 70 74 73 72 70 69 70 70 69 65 67 73 77 80 82 83 84 85 85 84 82 80 77 77 80 82 85 89 93 98 108 132 174 205 206 53 38 32 23
47 53 58 60 61 62 64 65 67 69 69 69 69 69 69 68 68 70 73 76 77 77 76 74 73 72 70 69 66 63 63 69 73 72 71 69 70 71 71 68 67 72 78 82 84 85 87 88 89 89 89 88 91 95 98 103 109 118 127 139 161 185 199 199 109 72 61 50 38
52 56 60 62 62 62 62 64 66 68 70 71 71 71 71 72 72 72 74 76 80 81 81 78 76 74 74 74 71 67 65 67 73 76 76 73 74 75 76 73 71 76 82 86 87 89 91 94 97 102 109 123 130 134 134 133 138 140 148 154 170 191 184 130 99 91 84 73 55
61 63 64 66 66 66 65 65 66 68 71 73 73 74 75 76 77 77 78 79 82 85 87 86 83 82 82 83 81 76 71 68 74 80 84 83 85 86 87 84 82 85 90 91 91 92 95 100 105 115 129 155 165 165 157 142 136 136 137 138 135 131 111 114 119 119 115 104 73
74 73 72 73 73 72 71 70 69 70 73 76 77 78 79 82 84 84 84 85 87 89 92 93 93 91 89 88 87 85 80 73 75 82 91 98 98 99 99 98 99 98 95 92 90 89 88 88 91 99 115 155 171 168 143 122 109 99 87 81 70 33 355 338 76 121 125 118 86
90 88 86 85 84 82 80 78 77 77 78 79 81 85 88 89 91 92 92 94 95 96 99 102 102 101 98 96 95 95 94 90 89 96 106 112 108 108 108 111 113 103 84 80 79 75 71 67 65 68 73 91 94 86 81 79 67 54 38 25 26 21 7 352 355 7 41 80 85